{"data":{"norad_id":59687,"epoch":"2026-05-24T06:31:56.764992Z","epoch_age_seconds":138746,"freshness":"FRESH","line1":"1 59687U 24086F   26144.27218478  .00006621  00000+0  24992-3 0  9994","line2":"2 59687  43.0003 352.8689 0001411 270.6192  89.4498 15.27576563115671","mean_motion":15.27576563,"eccentricity":0.0001411,"inclination_deg":43.0003,"raan_deg":352.8689,"arg_perigee_deg":270.6192,"mean_anomaly_deg":89.4498,"bstar":0.00024992,"rev_number":11567,"period_min":94.266960810919,"perigee_km":482.0912728631,"apogee_km":484.0275024837,"semimajor_km":6861.1963876734,"source":"CELESTRAK","updated_at":"2026-05-25T13:38:19.023950Z"}}